Fort Rucker / Ozark, AL

2:39 PM CST on December 12, 2017 (GMT -0600)
Fort Rucker / Ozark

Weather History for KHEY - August, 2014

Change the Weather History Date:

Saturday, August 9, 2014

  Actual Average (KOZR) Record (KOZR)
Temperature  
Mean Temperature 82 °F -  
Max Temperature 91 °F 86 °F 102 °F (2007)
Min Temperature 72 °F 68 °F 62 °F (2002)
Cooling Degree Days 16    
Growing Degree Days 32 (Base 50)    
Moisture  
Dew Point 73 °F    
Average Humidity 78    
Maximum Humidity 97    
Minimum Humidity 55    
Precipitation  
Precipitation 0.12 in - - ()
Sea Level Pressure  
Sea Level Pressure 29.79 in    
Wind  
Wind Speed 3 mph (West)    
Max Wind Speed 13 mph    
Max Gust Speed 24 mph    
Visibility 9 miles    
Events Rain , Thunderstorm    
Averages and records for this station are not official NWS values.
T = Trace of Precipitation, MM = Missing Value Source: NWS Daily Summary

Daily Weather History Graph

Daily Weather History Graph

Search for Another Location

Airport or City:

Trip Planner

Search our weather history database for the weather conditions in past years. The results will help you decide how hot, cold, wet, or windy it might be!

Date:

Astronomy

Aug. 09, 2014 Rise Set
Actual Time 6:04 AM CDT 7:31 PM CDT
Civil Twilight 5:38 AM CDT 7:57 PM CDT
Nautical Twilight 5:07 AM CDT 8:28 PM CDT
Astronomical Twilight 4:35 AM CDT 9:00 PM CDT
Moon 6:34 PM CDT (8/9) 4:44 AM CDT (8/9)
Length of Visible Light 14h 18m
Length of Day
13h 27m
Waxing Gibbous, 98% of the Moon is Illuminated
Aug 9
Waxing Gibbous
Aug 10
Full
Aug 17
Last Quarter
Aug 25
New
Sep 2
First Quarter

Hourly Weather History & Observations

Time (CDT) Temp. Heat Index Dew Point Humidity Pressure Visibility Wind Dir Wind Speed Gust Speed Precip Events Conditions
12:53 AM 75.9 °F - 73.0 °F 91% 29.69 in 10.0 mi North 4.6 mph - N/A   Clear
1:53 AM 73.9 °F - 73.0 °F 97% 29.67 in 7.0 mi Calm Calm - N/A   Clear
2:53 AM 73.9 °F - 72.0 °F 93% 29.67 in 9.0 mi Calm Calm - N/A   Clear
3:53 AM 73.9 °F - 72.0 °F 93% 29.68 in 8.0 mi Calm Calm - N/A   Clear
4:53 AM 73.0 °F - 72.0 °F 96% 29.68 in 7.0 mi Calm Calm - N/A   Partly Cloudy
5:53 AM 72.0 °F - 71.1 °F 97% 29.70 in 6.0 mi Calm Calm - N/A   Clear
6:53 AM 75.0 °F - 73.0 °F 94% 29.70 in 6.0 mi Calm Calm - N/A   Clear
7:53 AM 78.1 °F - 73.9 °F 87% 29.70 in 10.0 mi Calm Calm - N/A   Clear
8:53 AM 84.0 °F 92.6 °F 75.9 °F 76% 29.71 in 10.0 mi Variable 5.8 mph - N/A   Clear
9:53 AM 86.0 °F 95.1 °F 75.0 °F 70% 29.71 in 10.0 mi SSW 6.9 mph - N/A   Partly Cloudy
10:39 AM 86.0 °F 93.8 °F 73.9 °F 67% 30.04 in 10.0 mi WNW 4.6 mph - N/A   Mostly Cloudy
10:50 AM 87.8 °F 95.6 °F 73.4 °F 62% 30.04 in 10.0 mi SW 4.6 mph - N/A   Scattered Clouds
10:53 AM 88.0 °F 96.5 °F 73.9 °F 63% 29.71 in 10.0 mi Variable 4.6 mph - N/A   Mostly Cloudy
11:53 AM 89.1 °F 96.0 °F 72.0 °F 57% 29.70 in 10.0 mi Calm Calm - N/A   Mostly Cloudy
12:15 PM 91.0 °F 99.3 °F 73.0 °F 55% 30.02 in 10.0 mi Variable 4.6 mph - N/A Thunderstorm Thunderstorm
12:30 PM 90.0 °F 97.9 °F 73.0 °F 57% 30.02 in 10.0 mi Variable 5.8 mph - N/A Thunderstorm Mostly Cloudy
12:45 PM 90.0 °F 99.0 °F 73.9 °F 59% 30.01 in 10.0 mi SW 9.2 mph - N/A Thunderstorm Thunderstorm
12:53 PM 84.9 °F 90.7 °F 72.0 °F 65% 29.69 in 10.0 mi Variable 6.9 mph 18.4 mph N/A Thunderstorm Thunderstorm
1:53 PM 84.0 °F 91.9 °F 75.0 °F 74% 29.67 in 10.0 mi NNW 3.5 mph - 0.04 in Thunderstorm Thunderstorm
2:35 PM 87.1 °F 95.4 °F 73.9 °F 65% 29.98 in 10.0 mi North 8.1 mph - 0.01 in   Partly Cloudy
2:48 PM 84.2 °F 90.9 °F 73.4 °F 70% 29.98 in 10.0 mi West 4.6 mph - 0.01 in Thunderstorm Thunderstorm
2:53 PM 84.9 °F 92.1 °F 73.9 °F 69% 29.66 in 10.0 mi WSW 5.8 mph - 0.01 in Thunderstorm Thunderstorm
3:25 PM 82.9 °F 88.8 °F 73.0 °F 72% 29.99 in 10.0 mi Variable 6.9 mph - N/A   Clear
3:53 PM 82.0 °F 87.4 °F 73.0 °F 74% 29.65 in 10.0 mi Variable 3.5 mph - N/A   Clear
4:53 PM 82.9 °F 88.0 °F 72.0 °F 69% 29.63 in 10.0 mi SW 5.8 mph - 0.00 in   Clear
5:53 PM 82.9 °F 88.0 °F 72.0 °F 69% 29.65 in 10.0 mi Calm Calm - N/A   Clear
6:53 PM 81.0 °F 85.8 °F 73.0 °F 77% 29.67 in 10.0 mi Calm Calm - N/A   Clear
7:53 PM 78.1 °F - 72.0 °F 81% 29.71 in 10.0 mi West 12.7 mph 24.2 mph N/A   Overcast
8:15 PM 73.9 °F - 73.0 °F 97% 30.04 in 4.0 mi WNW 6.9 mph - 0.03 in Rain Rain
8:53 PM 73.9 °F - 72.0 °F 93% 29.70 in 10.0 mi Calm Calm - 0.07 in Rain Light Rain
10:13 PM 73.0 °F - 72.0 °F 96% 30.04 in 10.0 mi Variable 3.5 mph - N/A   Mostly Cloudy
10:53 PM 73.0 °F - 72.0 °F 96% 29.70 in 9.0 mi Calm Calm - N/A   Scattered Clouds
11:53 PM 73.0 °F - 72.0 °F 96% 29.70 in 4.0 mi Calm Calm - N/A   Partly Cloudy